Home   Weather   Ojinaga   Past weeks
Flag for Mexico

Past Weather in Ojinaga, Chihuahua, Mexico — Yesterday and Last 2 Weeks

Now
74 °F

Sunny.


Feels Like: 77 °F
Forecast: 102 / 74 °F
Wind: 7 mph from Southeast

Location: Marfa Municipal Airport

Current Time: Jul 17, 2019 at 8:55:19 am

Latest Report: Jul 17, 2019 at 7:56 am


Visibility: 10 mi

Pressure: 30.00 "Hg (27.39 "Hg at 788m altitude)

Humidity: 62%

Dew Point: 60 °F

Location of OjinagaLocation

Past Weather in Ojinaga — Graph

°F

Ojinaga Temperature Yesterday

Maximum temperature yesterday: 91 °F (at 1:56 pm)
Minimum temperature yesterday: 61 °F (at 3:56 am)
Average temperature yesterday: 77 °F

High & Low Weather Summary for the Past Weeks

 TemperatureHumidityPressure
High94 °F (Jul 10, 1:56 pm)94% (Jul 12, 2:56 am)30.28 "Hg (Jul 12, 2:56 am)
Low55 °F (Jul 15, 5:56 am)19% (Jul 4, 3:35 pm)29.76 "Hg (Jul 3, 5:56 pm)
Average76 °F52%30.00 "Hg
* Reported Jul 2 6:56 am — Jul 17 6:56 am, Ojinaga. Weather by CustomWeather, © 2019

Note: Actual official high and low records may vary slightly from our data, if they occured in-between our weather recording intervals... More about our weather records

Advertising

Ojinaga Weather History for the Previous 24 Hours

Scroll right to see more
 ConditionsComfort  
Time TempWeatherWind HumidityBarometerVisibility
6:56 am
Wed, Jul 17
66 °FScattered clouds.No wind81%29.99 "Hg10 mi
5:56 am65 °FPassing clouds.3 mph85%29.98 "Hg10 mi
4:56 am64 °FClear.8 mph84%29.97 "Hg10 mi
3:56 am64 °FClear.5 mph84%29.93 "Hg10 mi
2:56 am67 °FClear.5 mph79%29.92 "Hg10 mi
1:56 am70 °FClear.No wind73%29.92 "Hg10 mi
12:56 am73 °FClear.5 mph66%29.93 "Hg10 mi
11:56 pm
Tue, Jul 16
76 °FClear.6 mph60%29.93 "Hg10 mi
10:56 pm75 °FClear.5 mph62%29.93 "Hg10 mi
9:56 pm76 °FClear.No wind58%29.92 "Hg10 mi
8:56 pm74 °FClear.6 mph60%29.91 "Hg10 mi
7:56 pm78 °FSunny.6 mph54%29.90 "Hg10 mi
6:56 pm79 °FSunny.No wind54%29.91 "Hg10 mi
5:56 pm78 °FSunny.8 mph54%29.93 "Hg10 mi
4:56 pm82 °FThunderstorms. Scattered clouds.6 mph43%29.93 "Hg9 mi
4:26 pm88 °FThunderstorms. Mostly cloudy.16 mph33%30.09 "Hg3 mi
4:16 pm88 °FThundershowers. Mostly cloudy.16 mph33%30.09 "Hg1 mi
3:56 pm91 °FThundershowers. Partly sunny.3 mph28%29.90 "Hg10 mi
2:56 pm91 °FSunny.7 mph28%29.92 "Hg10 mi
1:56 pm91 °FSunny.No wind28%29.94 "Hg10 mi
12:56 pm90 °FSunny.7 mph29%29.94 "Hg10 mi
11:56 am87 °FSunny.7 mph35%29.98 "Hg10 mi
10:56 am85 °FSunny.9 mph40%29.98 "Hg10 mi
9:56 am81 °FSunny.9 mph49%29.99 "Hg10 mi
8:56 am78 °FSunny.8 mph54%29.99 "Hg10 mi
Weather by CustomWeather, © 2019

See weather overview